TimeCST,TemperatureF,Dew PointF,Humidity,Sea Level PressureIn,VisibilityMPH,Wind Direction,Wind SpeedMPH,Gust SpeedMPH,PrecipitationIn,Events,Conditions,WindDirDegrees,DateUTC
12:24 AM,28.4,17.6,64,30.16,10.0,NW,24.2,38.0,N/A,,Overcast,310,2012-11-23 06:24:00
12:53 AM,28.9,17.1,61,30.20,10.0,NW,27.6,41.4,N/A,,Overcast,310,2012-11-23 06:53:00
1:53 AM,27.0,16.0,63,30.24,10.0,NW,25.3,42.6,N/A,,Overcast,310,2012-11-23 07:53:00
2:53 AM,25.0,15.1,66,30.28,10.0,NW,20.7,34.5,N/A,,Mostly Cloudy,310,2012-11-23 08:53:00
3:44 AM,24.8,12.2,59,30.25,10.0,NW,19.6,36.8,N/A,,Scattered Clouds,310,2012-11-23 09:44:00
3:53 AM,24.1,14.0,65,30.30,10.0,NW,27.6,35.7,N/A,,Scattered Clouds,310,2012-11-23 09:53:00
4:15 AM,24.8,12.2,59,30.25,10.0,NW,28.8,38.0,N/A,,Mostly Cloudy,310,2012-11-23 10:15:00
4:25 AM,23.0,12.2,63,30.26,10.0,NW,18.4,35.7,N/A,,Scattered Clouds,310,2012-11-23 10:25:00
4:53 AM,21.9,12.9,68,30.32,10.0,NW,17.3,28.8,N/A,,Partly Cloudy,310,2012-11-23 10:53:00
5:53 AM,21.0,12.9,71,30.34,10.0,NW,23.0,32.2,N/A,,Clear,310,2012-11-23 11:53:00
6:15 AM,21.2,12.2,68,30.30,10.0,NW,18.4,26.5,N/A,,Mostly Cloudy,320,2012-11-23 12:15:00
7:53 AM,21.9,10.9,63,30.39,10.0,NNW,25.3,38.0,0.00,,Overcast,330,2012-11-23 13:53:00
8:53 AM,21.9,10.0,60,30.42,10.0,NNW,28.8,42.6,0.00,,Overcast,340,2012-11-23 14:53:00
9:39 AM,23.0,10.4,59,30.38,10.0,NNW,28.8,38.0,N/A,,Mostly Cloudy,330,2012-11-23 15:39:00
9:53 AM,24.1,10.9,57,30.44,10.0,NNW,25.3,35.7,N/A,,Overcast,340,2012-11-23 15:53:00
10:53 AM,26.1,10.9,53,30.45,10.0,NNW,23.0,34.5,N/A,,Overcast,330,2012-11-23 16:53:00
11:53 AM,27.0,10.9,51,30.45,10.0,NNW,27.6,35.7,N/A,,Mostly Cloudy,340,2012-11-23 17:53:00
12:53 PM,28.9,12.0,49,30.45,10.0,NW,20.7,32.2,N/A,,Mostly Cloudy,310,2012-11-23 18:53:00
1:53 PM,28.9,12.0,49,30.45,10.0,NW,18.4,28.8,N/A,,Clear,310,2012-11-23 19:53:00
2:53 PM,28.0,12.0,51,30.45,10.0,NNW,16.1,24.2,N/A,,Clear,330,2012-11-23 20:53:00
3:53 PM,27.0,12.0,53,30.45,10.0,NW,12.7,23.0,N/A,,Clear,320,2012-11-23 21:53:00
4:53 PM,24.1,12.0,60,30.46,10.0,NW,8.1,-,N/A,,Clear,320,2012-11-23 22:53:00
5:53 PM,19.9,10.9,68,30.47,10.0,NW,9.2,-,N/A,,Clear,310,2012-11-23 23:53:00
6:53 PM,19.0,10.9,71,30.46,10.0,WNW,9.2,-,N/A,,Clear,300,2012-11-24 00:53:00
7:53 PM,17.1,10.0,74,30.46,10.0,NW,5.8,-,N/A,,Clear,320,2012-11-24 01:53:00
8:53 PM,15.1,10.0,80,30.45,10.0,NW,5.8,-,N/A,,Clear,320,2012-11-24 02:53:00
9:53 PM,14.0,9.0,80,30.45,10.0,NW,4.6,-,N/A,,Clear,320,2012-11-24 03:53:00
10:53 PM,10.0,6.1,84,30.44,10.0,NW,3.5,-,N/A,,Clear,310,2012-11-24 04:53:00
11:53 PM,9.0,6.1,88,30.44,10.0,West,3.5,-,N/A,,Clear,270,2012-11-24 05:53:00